Погода в Манзини

Эсватини     26°30′29″S   31°22′13″E
темп.,
°C
ветер,
м/с
пор.,
м/с
влажн.,
%
обл.,
%
осадки,
мм/ч
давл.,
гПа
погр.,
м
13 августа, сб
сб1323:00+17зсз33270 0.0 101429
02:00+16зюз22321 0.0 101411
05:00+14зюз1138100 0.0 101410
08:00+16вюв113651 0.0 1015133
11:00+22в33340 0.0 1013762
14:00+26всв66330 0.0 10081014
17:00+23всв47390 0.0 1008273
20:00+17сз224975 0.0 101019
14 августа, вс
вс1423:00+16сз22470 0.0 101013
02:00+15зсз2245100 0.0 100716
05:00+15зсз3341100 0.0 100825
08:00+19з242474 0.0 1009144
11:00+27зюз5111611 0.0 10072502
14:00+29зюз691483 0.0 10043065
17:00+25юз471515 0.0 1006178
20:00+13з11880 0.0 101312
15 августа, пн
пн1523:00+11юв117712 0.0 101515
02:00+9з11620 0.0 101610
05:00+8зюз22411 0.0 101813
08:00+11зюз233210 0.0 1021248
11:00+16ююв23260 0.0 10211362
14:00+19вюв33251 0.0 10181887
17:00+17в23350 0.0 1019110
20:00+12в48510 0.0 1023290
16 августа, вт
вт1623:00+9ссз22710 0.0 102511
02:00+8зсз21770 0.0 102510
05:00+7зсз22810 0.0 102517
08:00+11сз12620 0.0 1025247
11:00+19всв34360 0.0 10211137
14:00+24в54238 0.0 10161235
17:00+20всв47322 0.0 1016281
20:00+15сз33415 0.0 101825
17 августа, ср
ср1723:00+14зсз33434 0.0 101732
02:00+13зсз33413 0.0 101637
05:00+13сз334049 0.0 101536
08:00+17ссз3432100 0.0 1015136
11:00+30з481120 0.0 10102124
14:00+32з798100 0.0 10052889
17:00+28зсз591399 0.0 1005229
20:00+23сз5101973 0.0 1007219